Powrót do katalogu

THORAD AGENA D DEB

AktywnyLEO
NORAD 4996·DEBRIS·🇺🇸 United States

Wystrzelony Apr 8, 1970 z Vandenberg Space Force Base

Loading…

Następne Przeloty

TLE

Source: Space-Track
1 04996U 70025HS  26229.87682177  .00001818  00000-0  10076-2 0  9993
2 04996 100.3471 359.6126 0068503 271.5490  87.7831 14.11693468826933

Śledź THORAD AGENA D DEB w czasie rzeczywistym z AllMySat

Download on the App Store